Weather History for Covington, KY

Change the Weather History Date:

Friday, January 4, 2013

  Actual Average Record
Temperature  
Mean Temperature 32 °F 31 °F  
Max Temperature 36 °F 38 °F 66 °F (1997)
Min Temperature 28 °F 23 °F -4 °F (1879)
Degree Days  
Heating Degree Days 33 34  
Month to date heating degree days 151 136  
Since 1 July heating degree days 2017 2055  
Cooling Degree Days 0 0  
Month to date cooling degree days 0 0  
Year to date cooling degree days 0 0  
Moisture  
Dew Point 22 °F    
Average Humidity 66    
Maximum Humidity 75    
Minimum Humidity 56    
Precipitation  
Precipitation 0.00 in 0.10 in 2.53 in (1949)
Month to date precipitation 0.01 0.41  
Year to date precipitation 0.01 0.41  
Snow  
Snow 0.00 in 0.20 in 4.20 in (1980)
Month to date snowfall 0.2 0.7  
Since 1 July snowfall 7.8 6.3  
Snow Depth 1.00 in    
Sea Level Pressure  
Sea Level Pressure 30.34 in    
Wind  
Wind Speed 10 mph (WSW)    
Max Wind Speed 26 mph    
Max Gust Speed 30 mph    
Visibility 10 miles    
Events      
T = Trace of Precipitation, MM = Missing Value Source: NWS Daily Summary

Daily Weather History Graph

Daily Weather History Graph

Search for Another Location

Airport:

Trip Planner

Search our weather history database for the weather conditions in past years. The results will help you decide how hot, cold, wet, or windy it might be!

Date:

Astronomy

Jan. 04, 2013 Rise Set
Actual Time 7:58 AM EST 5:29 PM EST
Civil Twilight 7:28 AM EST 5:59 PM EST
Nautical Twilight 6:54 AM EST 6:32 PM EST
Astronomical Twilight 6:22 AM EST 7:05 PM EST
Moon 12:00 AM EST (1/4) 11:44 AM EST (1/4)
Length of Visible Light 10h 31m
Length of Day
9h 31m
Waning Gibbous, 55% of the Moon is Illuminated
Jan 4
Waning Gibbous
Jan 4
Last Quarter
Jan 11
New
Jan 18
First Quarter
Jan 26
Full

Hourly Weather History & Observations

Time (EST) Temp. Windchill Dew Point Humidity Pressure Visibility Wind Dir Wind Speed Gust Speed Precip Events Conditions
12:52 AM 30.2 °F 22.6 °F 23.0 °F 75% 30.31 in 9.0 mi SW 8.1 mph - N/A   Overcast
1:52 AM 30.0 °F 21.7 °F 23.0 °F 75% 30.32 in 8.0 mi SW 9.2 mph - N/A   Overcast
2:52 AM 30.0 °F 21.1 °F 23.0 °F 75% 30.33 in 9.0 mi West 10.4 mph - N/A   Overcast
3:52 AM 30.0 °F 23.2 °F 23.0 °F 75% 30.32 in 9.0 mi WSW 6.9 mph - N/A   Overcast
4:52 AM 30.0 °F 23.2 °F 23.0 °F 75% 30.32 in 9.0 mi WSW 6.9 mph - N/A   Overcast
5:52 AM 30.0 °F 21.1 °F 21.9 °F 72% 30.33 in 10.0 mi WSW 10.4 mph - N/A   Overcast
6:52 AM 30.0 °F 21.1 °F 21.9 °F 72% 30.34 in 10.0 mi West 10.4 mph - N/A   Overcast
7:52 AM 30.0 °F 22.4 °F 21.0 °F 69% 30.35 in 10.0 mi WSW 8.1 mph - N/A   Overcast
8:20 AM 28.4 °F 19.7 °F 21.2 °F 74% 30.31 in 10.0 mi SW 9.2 mph - N/A   Scattered Clouds
8:52 AM 30.0 °F 23.2 °F 21.0 °F 69% 30.35 in 10.0 mi SW 6.9 mph - N/A   Partly Cloudy
9:52 AM 30.9 °F 22.2 °F 21.9 °F 69% 30.35 in 10.0 mi WSW 10.4 mph - N/A   Partly Cloudy
10:52 AM 33.1 °F 23.9 °F 23.0 °F 66% 30.36 in 10.0 mi WSW 12.7 mph 21.9 mph N/A   Partly Cloudy
11:52 AM 35.1 °F 25.9 °F 23.0 °F 61% 30.36 in 10.0 mi West 13.8 mph 24.2 mph N/A   Partly Cloudy
12:52 PM 35.1 °F 25.2 °F 23.0 °F 61% 30.34 in 10.0 mi West 16.1 mph - N/A   Scattered Clouds
1:52 PM 36.0 °F 27.5 °F 21.0 °F 55% 30.31 in 10.0 mi WSW 12.7 mph 21.9 mph N/A   Partly Cloudy
2:52 PM 35.1 °F 24.8 °F 21.0 °F 57% 30.32 in 10.0 mi West 17.3 mph 27.6 mph N/A   Partly Cloudy
3:52 PM 35.1 °F 26.4 °F 21.9 °F 59% 30.33 in 10.0 mi WSW 12.7 mph 23.0 mph N/A   Partly Cloudy
4:52 PM 34.0 °F 26.6 °F 19.9 °F 56% 30.33 in 10.0 mi WSW 9.2 mph 19.6 mph N/A   Partly Cloudy
5:52 PM 32.0 °F 23.6 °F 19.9 °F 61% 30.35 in 10.0 mi WSW 10.4 mph - N/A   Clear
6:52 PM 30.9 °F 25.2 °F 21.0 °F 67% 30.35 in 10.0 mi WSW 5.8 mph - N/A   Clear
8:52 PM 30.0 °F 24.1 °F 21.0 °F 69% 30.36 in 10.0 mi WSW 5.8 mph - N/A   Clear
9:52 PM 28.9 °F 20.4 °F 21.0 °F 72% 30.35 in 10.0 mi SW 9.2 mph - N/A   Clear
10:52 PM 28.9 °F 20.4 °F 21.9 °F 75% 30.35 in 10.0 mi WSW 9.2 mph - N/A   Clear
11:52 PM 28.9 °F 21.9 °F 21.9 °F 75% 30.36 in 10.0 mi WSW 6.9 mph - N/A   Clear